EW1036 Weather Reports


Display with metric or nautical units.
time (UTC)temp
F
wind
direction
speed
MPH
gust
MPH
rain 1hr
in
rain 24hr
in
rain mn
in
humidity
%
barometer
mb
20260903214033 85 0 0.0 0.0 0.00 0.00 0.00 80 1016.2
20260903213532 85 0 0.0 0.0 0.00 0.00 0.00 78 1016.1
20260903213052 85 0 0.0 0.0 0.00 0.00 0.00 78 1016.0
20260903212533 85 0 0.0 0.0 0.00 0.00 0.00 79 1015.9
20260903212032 85 0 0.0 0.0 0.00 0.00 0.00 78 1015.8
20260903211556 85 0 0.0 0.0 0.00 0.00 0.00 79 1015.6
20260903211033 85 0 0.0 0.0 0.00 0.00 0.00 79 1015.7
20260903210532 85 0 0.0 0.0 0.00 0.00 0.00 77 1015.6
20260903210100 85 0 0.0 0.0 0.00 0.00 0.00 78 1015.6
20260903205534 85 0 0.0 0.0 0.00 0.00 0.00 77 1015.5
20260903205032 85 0 0.0 0.0 0.00 0.00 0.00 79 1015.6
20260903204550 86 0 0.0 0.0 0.00 0.00 0.00 79 1015.6
20260903204035 86 0 0.0 0.0 0.00 0.00 0.00 76 1015.6
20260903203533 86 0 0.0 0.0 0.00 0.00 0.00 79 1015.7
20260903203047 86 0 0.0 0.0 0.00 0.00 0.00 77 1015.8
20260903202533 86 0 0.0 0.0 0.00 0.00 0.00 80 1016.0
20260903202033 87 0 0.0 0.0 0.00 0.00 0.00 78 1016.1
20260903201556 88 0 0.0 0.0 0.00 0.00 0.00 77 1016.0
20260903201033 87 0 0.0 0.0 0.00 0.00 0.00 75 1016.0
20260903200532 88 0 0.0 0.0 0.00 0.00 0.00 75 1016.2
20260903200055 88 0 0.0 0.0 0.00 0.00 0.00 71 1016.2
20260903195533 87 0 0.0 0.0 0.00 0.00 0.00 77 1016.2
20260903195032 88 0 0.0 0.0 0.00 0.00 0.00 75 1016.2
20260903194553 89 0 0.0 0.0 0.00 0.00 0.00 73 1016.2
20260903194032 88 0 0.0 0.0 0.00 0.00 0.00 76 1016.4
20260903193533 88 0 0.0 0.0 0.00 0.00 0.00 78 1016.4
20260903193051 88 0 0.0 0.0 0.00 0.00 0.00 77 1016.5
20260903192533 88 0 0.0 0.0 0.00 0.00 0.00 81 1016.6
20260903192031 88 0 0.0 0.0 0.00 0.00 0.00 80 1016.6
20260903191546 88 0 0.0 0.0 0.00 0.00 0.00 80 1016.7
20260903191033 89 0 0.0 0.0 0.00 0.00 0.00 79 1016.8
20260903190533 89 0 0.0 0.0 0.00 0.00 0.00 76 1016.7
20260903190058 89 0 0.0 0.0 0.00 0.00 0.00 79 1016.8
20260903185532 89 0 0.0 0.0 0.00 0.00 0.00 76 1016.9
20260903185032 88 0 0.0 0.0 0.00 0.00 0.00 79 1017.1
20260903184553 89 0 0.0 0.0 0.00 0.00 0.00 78 1017.1
20260903184034 90 0 0.0 0.0 0.00 0.00 0.00 74 1017.2
20260903183532 90 0 0.0 0.0 0.00 0.00 0.00 74 1017.2
20260903183055 89 0 0.0 0.0 0.00 0.00 0.00 81 1017.2
20260903182532 89 0 0.0 0.0 0.00 0.00 0.00 78 1017.3
20260903182033 90 0 0.0 0.0 0.00 0.00 0.00 78 1017.3
20260903181551 89 0 0.0 0.0 0.00 0.00 0.00 77 1017.2
20260903181032 89 0 0.0 0.0 0.00 0.00 0.00 80 1017.1
20260903180533 90 0 0.0 0.0 0.00 0.00 0.00 76 1017.2
20260903175534 91 0 0.0 0.0 0.00 0.00 0.00 73 1017.3
20260903175032 90 0 0.0 0.0 0.00 0.00 0.00 73 1017.3
20260903174550 89 0 0.0 0.0 0.00 0.00 0.00 76 1017.4
20260903174031 90 0 0.0 0.0 0.00 0.00 0.00 78 1017.3
20260903173532 90 0 0.0 0.0 0.00 0.00 0.00 73 1017.4
20260903173057 90 0 0.0 0.0 0.00 0.00 0.00 75 1017.4
20260903172532 90 0 0.0 0.0 0.00 0.00 0.00 75 1017.5
20260903172034 90 0 0.0 0.0 0.00 0.00 0.00 71 1017.6
20260903171556 91 0 0.0 0.0 0.00 0.00 0.00 73 1017.6
20260903171032 90 0 0.0 0.0 0.00 0.00 0.00 72 1017.5
20260903170534 91 0 0.0 0.0 0.00 0.00 0.00 75 1017.6
20260903170152 91 0 0.0 0.0 0.00 0.00 0.00 70 1017.7
20260903165533 90 0 0.0 0.0 0.00 0.00 0.00 80 1017.7
20260903165035 91 0 0.0 0.0 0.00 0.00 0.00 76 1017.7
20260903164602 91 0 0.0 0.0 0.00 0.00 0.00 76 1017.7
20260903164032 91 0 0.0 0.0 0.00 0.00 0.00 76 1018.0
20260903163533 91 0 0.0 0.0 0.00 0.00 0.00 76 1018.0
20260903163058 90 0 0.0 0.0 0.00 0.00 0.00 76 1018.1
20260903162533 90 0 0.0 0.0 0.00 0.00 0.00 73 1018.2
20260903162033 90 0 0.0 0.0 0.00 0.00 0.00 78 1018.3
20260903161606 89 0 0.0 0.0 0.00 0.00 0.00 76 1018.3
20260903161034 90 0 0.0 0.0 0.00 0.00 0.00 73 1018.4
20260903160530 91 0 0.0 0.0 0.00 0.00 0.00 79 1018.4
20260903155532 89 0 0.0 0.0 0.00 0.00 0.00 77 1018.4
20260903155034 90 0 0.0 0.0 0.00 0.00 0.00 79 1018.5
20260903154559 90 0 0.0 0.0 0.00 0.00 0.00 77 1018.5
20260903154033 90 0 0.0 0.0 0.00 0.00 0.00 79 1018.4
20260903153532 89 0 0.0 0.0 0.00 0.00 0.00 78 1018.5
20260903153055 88 0 0.0 0.0 0.00 0.00 0.00 77 1018.5
20260903152534 89 0 0.0 0.0 0.00 0.00 0.00 79 1018.5
20260903152033 88 0 0.0 0.0 0.00 0.00 0.00 77 1018.4
20260903151553 88 0 0.0 0.0 0.00 0.00 0.00 80 1018.4
20260903151037 87 0 0.0 0.0 0.00 0.00 0.00 79 1018.4
20260903150533 87 0 0.0 0.0 0.00 0.00 0.00 84 1018.5
20260903150057 87 0 0.0 0.0 0.00 0.00 0.00 79 1018.5
20260903145534 88 0 0.0 0.0 0.00 0.00 0.00 81 1018.5
20260903145033 87 0 0.0 0.0 0.00 0.00 0.00 79 1018.5
20260903144556 87 0 0.0 0.0 0.00 0.00 0.00 82 1018.5
20260903144030 86 0 0.0 0.0 0.00 0.00 0.00 80 1018.6
20260903143533 86 0 0.0 0.0 0.00 0.00 0.00 81 1018.6
20260903143057 86 0 0.0 0.0 0.00 0.00 0.00 83 1018.6
20260903142532 85 0 0.0 0.0 0.00 0.00 0.00 83 1018.5
20260903142035 85 0 0.0 0.0 0.00 0.00 0.00 87 1018.5
20260903141552 84 0 0.0 0.0 0.00 0.00 0.00 85 1018.5
20260903141033 84 0 0.0 0.0 0.00 0.00 0.00 88 1018.4
20260903140533 84 0 0.0 0.0 0.00 0.00 0.00 88 1018.4
20260903135533 84 0 0.0 0.0 0.00 0.00 0.00 89 1018.3
20260903135033 83 0 0.0 0.0 0.00 0.00 0.00 88 1018.2
20260903134555 83 0 0.0 0.0 0.00 0.00 0.00 89 1018.2
20260903134034 83 0 0.0 0.0 0.00 0.00 0.00 88 1018.2
20260903133532 83 0 0.0 0.0 0.00 0.00 0.00 88 1018.2
20260903133057 83 0 0.0 0.0 0.00 0.00 0.00 88 1018.2
20260903132532 84 0 0.0 0.0 0.00 0.00 0.00 90 1018.3
20260903132033 83 0 0.0 0.0 0.00 0.00 0.00 90 1018.3
20260903131602 82 0 0.0 0.0 0.00 0.00 0.00 91 1018.4
20260903131033 82 0 0.0 0.0 0.00 0.00 0.00 92 1018.3
20260903130535 82 0 0.0 0.0 0.00 0.00 0.00 90 1018.3
20260903130055 82 0 0.0 0.0 0.00 0.00 0.00 91 1018.4
20260903125534 82 0 0.0 0.0 0.00 0.00 0.00 92 1018.4
20260903125033 81 0 0.0 0.0 0.00 0.00 0.00 92 1018.4
20260903124612 81 0 0.0 0.0 0.00 0.00 0.00 94 1018.5
20260903124032 80 0 0.0 0.0 0.00 0.00 0.00 96 1018.4
20260903123533 79 0 0.0 0.0 0.00 0.00 0.00 96 1018.4
20260903123055 79 0 0.0 0.0 0.00 0.00 0.00 96 1018.4
20260903122532 79 0 0.0 0.0 0.00 0.00 0.00 96 1018.5
20260903122033 79 0 0.0 0.0 0.00 0.00 0.00 96 1018.4
20260903121552 79 0 0.0 0.0 0.00 0.00 0.00 96 1018.4
20260903121032 79 0 0.0 0.0 0.00 0.00 0.00 96 1018.3
20260903120533 78 0 0.0 0.0 0.00 0.00 0.00 96 1018.3
20260903120051 78 0 0.0 0.0 0.00 0.00 0.00 96 1018.1
20260903115535 78 0 0.0 0.0 0.00 0.00 0.00 96 1018.2
20260903115034 78 0 0.0 0.0 0.00 0.00 0.00 96 1018.1
20260903114608 78 0 0.0 0.0 0.00 0.00 0.00 96 1018.1
20260903114032 78 0 0.0 0.0 0.00 0.00 0.00 96 1018.1
20260903113532 78 0 0.0 0.0 0.00 0.00 0.00 96 1018.1
20260903113105 78 0 0.0 0.0 0.00 0.00 0.00 96 1018.0
20260903112536 78 0 0.0 0.0 0.00 0.00 0.00 96 1017.9
20260903112032 78 0 0.0 0.0 0.00 0.00 0.00 96 1017.8
20260903111554 78 0 0.0 0.0 0.00 0.00 0.00 96 1017.8
20260903111033 78 0 0.0 0.0 0.00 0.00 0.00 96 1017.8
20260903110533 78 0 0.0 0.0 0.00 0.00 0.00 96 1017.7
20260903110059 78 0 0.0 0.0 0.00 0.00 0.00 96 1017.7
20260903105533 77 0 0.0 0.0 0.00 0.00 0.00 96 1017.7
20260903105033 78 0 0.0 0.0 0.00 0.00 0.00 96 1017.6
20260903104603 78 0 0.0 0.0 0.00 0.00 0.00 96 1017.5
20260903104032 77 0 0.0 0.0 0.00 0.00 0.00 96 1017.5
20260903103533 78 0 0.0 0.0 0.00 0.00 0.00 96 1017.5
20260903103056 77 0 0.0 0.0 0.00 0.00 0.00 96 1017.5
20260903102532 78 0 0.0 0.0 0.00 0.00 0.00 96 1017.5
20260903102033 77 0 0.0 0.0 0.00 0.00 0.00 96 1017.4
20260903101553 78 0 0.0 0.0 0.00 0.00 0.00 96 1017.5
20260903101033 78 0 0.0 0.0 0.00 0.00 0.00 96 1017.4
20260903100533 78 0 0.0 0.0 0.00 0.00 0.00 96 1017.4
20260903100051 78 0 0.0 0.0 0.00 0.00 0.00 96 1017.4
20260903095532 78 0 0.0 0.0 0.00 0.00 0.00 96 1017.3
20260903095032 78 0 0.0 0.0 0.00 0.00 0.00 96 1017.3
20260903094556 78 0 0.0 0.0 0.00 0.00 0.00 96 1017.3
20260903094034 78 0 0.0 0.0 0.00 0.00 0.00 96 1017.2
20260903093533 78 0 0.0 0.0 0.00 0.00 0.00 96 1017.2
20260903093059 78 0 0.0 0.0 0.00 0.00 0.00 96 1017.2
20260903092533 78 0 0.0 0.0 0.00 0.00 0.00 96 1017.2
20260903092033 78 0 0.0 0.0 0.00 0.00 0.00 96 1017.1
20260903091546 78 0 0.0 0.0 0.00 0.00 0.00 96 1017.1
20260903091033 78 0 0.0 0.0 0.00 0.00 0.00 96 1017.1
20260903090534 78 0 0.0 0.0 0.00 0.00 0.00 96 1017.0
20260903090056 77 0 0.0 0.0 0.00 0.00 0.00 96 1017.0
20260903085533 77 0 0.0 0.0 0.00 0.00 0.00 96 1016.9
20260903085032 77 0 0.0 0.0 0.00 0.00 0.00 96 1016.8
20260903084609 77 0 0.0 0.0 0.00 0.00 0.00 96 1016.9
20260903084032 78 0 0.0 0.0 0.00 0.00 0.00 96 1017.0
20260903083533 78 0 0.0 0.0 0.00 0.00 0.00 96 1017.0
20260903083052 78 0 0.0 0.0 0.00 0.00 0.00 96 1017.0
20260903082535 78 0 0.0 0.0 0.00 0.00 0.00 96 1017.0
20260903082032 77 0 0.0 0.0 0.00 0.00 0.00 96 1017.0
20260903081547 78 0 0.0 0.0 0.00 0.00 0.00 96 1017.0
20260903081032 78 0 0.0 0.0 0.00 0.00 0.00 96 1017.0
20260903080533 78 0 0.0 0.0 0.00 0.00 0.00 96 1017.0
20260903080046 78 0 0.0 0.0 0.00 0.00 0.00 96 1016.9
20260903075533 78 0 0.0 0.0 0.00 0.00 0.00 96 1016.9
20260903075036 78 0 0.0 0.0 0.00 0.00 0.00 96 1017.0
20260903074602 78 0 0.0 0.0 0.00 0.00 0.00 96 1016.9
20260903074032 78 0 0.0 0.0 0.00 0.00 0.00 96 1016.9
20260903073533 78 0 0.0 0.0 0.00 0.00 0.00 96 1016.8
20260903073104 78 0 0.0 0.0 0.00 0.00 0.00 96 1016.8
20260903072532 78 0 0.0 0.0 0.00 0.00 0.00 96 1016.8
20260903072034 78 0 0.0 0.0 0.00 0.00 0.00 96 1016.8
20260903071549 78 0 0.0 0.0 0.00 0.00 0.00 96 1016.6
20260903071031 78 0 0.0 0.0 0.00 0.00 0.00 96 1016.7
20260903070534 78 0 0.0 0.0 0.00 0.00 0.00 96 1016.7
20260903070059 78 0 0.0 0.0 0.00 0.00 0.00 96 1016.7
20260903065532 78 0 0.0 0.0 0.00 0.00 0.00 96 1016.6
20260903065031 78 0 0.0 0.0 0.00 0.00 0.00 96 1016.6
20260903064555 78 0 0.0 0.0 0.00 0.00 0.00 96 1016.5
20260903064032 78 0 0.0 0.0 0.00 0.00 0.00 96 1016.4
20260903063533 78 0 0.0 0.0 0.00 0.00 0.00 95 1016.5
20260903063054 78 0 0.0 0.0 0.00 0.00 0.00 95 1016.5
20260903062532 79 0 0.0 0.0 0.00 0.00 0.00 95 1016.6
20260903062035 79 0 0.0 0.0 0.00 0.00 0.00 95 1016.6
20260903061552 79 0 0.0 0.0 0.00 0.00 0.00 95 1016.5
20260903061032 79 0 0.0 0.0 0.00 0.00 0.00 95 1016.5
20260903060533 79 0 0.0 0.0 0.00 0.00 0.00 95 1016.5
20260903060049 79 0 0.0 0.0 0.00 0.00 0.00 95 1016.6
20260903055533 79 0 0.0 0.0 0.00 0.00 0.00 95 1016.6
20260903055032 79 0 0.0 0.0 0.00 0.00 0.00 95 1016.6
20260903054544 79 0 0.0 0.0 0.00 0.00 0.00 95 1016.7
20260903054032 79 0 0.0 0.0 0.00 0.00 0.00 95 1016.7
20260903053532 79 0 0.0 0.0 0.00 0.00 0.00 95 1016.8
20260903053055 79 0 0.0 0.0 0.00 0.00 0.00 95 1016.8
20260903052533 79 0 0.0 0.0 0.00 0.00 0.00 95 1016.9
20260903052035 79 0 0.0 0.0 0.00 0.00 0.00 95 1017.0
20260903051600 79 0 0.0 0.0 0.00 0.00 0.00 95 1016.9
20260903051036 79 0 0.0 0.0 0.00 0.00 0.00 95 1016.9
20260903050533 79 0 0.0 0.0 0.00 0.00 0.00 95 1016.8
20260903050055 79 0 0.0 0.0 0.00 0.00 0.00 95 1016.9
20260903045532 79 0 0.0 0.0 0.00 0.00 0.00 95 1017.0
20260903045032 79 0 0.0 0.0 0.00 0.00 0.00 95 1017.2
20260903044547 80 0 0.0 0.0 0.00 0.00 0.00 94 1017.2
20260903044033 80 0 0.0 0.0 0.00 0.00 0.00 95 1017.2
20260903043533 80 0 0.0 0.0 0.00 0.00 0.00 94 1017.2
20260903043047 80 0 0.0 0.0 0.00 0.00 0.00 95 1017.3
20260903042531 79 0 0.0 0.0 0.00 0.00 0.00 94 1017.3
20260903042034 79 0 0.0 0.0 0.00 0.00 0.00 94 1017.2
20260903041555 79 0 0.0 0.0 0.00 0.00 0.00 94 1017.3
20260903041032 80 0 0.0 0.0 0.00 0.00 0.00 94 1017.4
20260903040532 80 0 0.0 0.0 0.00 0.00 0.00 94 1017.3
20260903040054 80 0 0.0 0.0 0.00 0.00 0.00 94 1017.3
20260903035532 80 0 0.0 0.0 0.00 0.00 0.00 94 1017.4
20260903035032 80 0 0.0 0.0 0.00 0.00 0.00 94 1017.5
20260903034548 80 0 0.0 0.0 0.00 0.00 0.00 94 1017.5
20260903034034 80 0 0.0 0.0 0.00 0.00 0.00 94 1017.4
20260903033533 80 0 0.0 0.0 0.00 0.00 0.00 94 1017.3
20260903033044 80 0 0.0 0.0 0.00 0.00 0.00 93 1017.4
20260903032534 80 0 0.0 0.0 0.00 0.00 0.00 93 1017.4
20260903032033 80 0 0.0 0.0 0.00 0.00 0.00 93 1017.2
20260903031556 80 0 0.0 0.0 0.00 0.00 0.00 93 1017.1
20260903031032 80 0 0.0 0.0 0.00 0.00 0.00 93 1017.1
20260903030532 80 0 0.0 0.0 0.00 0.00 0.00 93 1017.1
20260903030054 80 0 0.0 0.0 0.00 0.00 0.00 93 1017.3
20260903025535 80 0 0.0 0.0 0.00 0.00 0.00 93 1017.2
20260903025032 80 0 0.0 0.0 0.00 0.00 0.00 93 1017.0
20260903024551 80 0 0.0 0.0 0.00 0.00 0.00 93 1017.2
20260903024031 80 0 0.0 0.0 0.00 0.00 0.00 93 1017.3
20260903023531 80 0 0.0 0.0 0.00 0.00 0.00 92 1017.3
20260903023056 80 0 0.0 0.0 0.00 0.00 0.00 92 1017.3
20260903022534 80 0 0.0 0.0 0.00 0.00 0.00 92 1017.5
20260903022031 81 0 0.0 0.0 0.00 0.00 0.00 92 1017.5
20260903021555 81 0 0.0 0.0 0.00 0.00 0.00 91 1017.5
20260903021033 81 0 0.0 0.0 0.00 0.00 0.00 91 1017.6
20260903020535 81 0 0.0 0.0 0.00 0.00 0.00 91 1017.5
20260903020053 81 0 0.0 0.0 0.00 0.00 0.00 91 1017.3
20260903015532 81 0 0.0 0.0 0.00 0.00 0.00 90 1017.0
20260903015033 81 0 0.0 0.0 0.00 0.00 0.00 89 1017.2
20260903014607 81 0 0.0 0.0 0.00 0.00 0.00 89 1017.0
20260903014033 81 0 0.0 0.0 0.00 0.00 0.00 89 1017.1
20260903013532 81 0 0.0 0.0 0.00 0.00 0.00 90 1017.3
20260903013056 81 0 0.0 0.0 0.00 0.00 0.00 90 1017.2
20260903012531 81 0 0.0 0.0 0.00 0.00 0.00 90 1017.2
20260903012031 81 0 0.0 0.0 0.00 0.00 0.00 90 1017.3
20260903011554 81 0 0.0 0.0 0.00 0.00 0.00 89 1017.3
20260903011032 82 0 0.0 0.0 0.00 0.00 0.00 88 1017.3
20260903010533 82 0 0.0 0.0 0.00 0.00 0.00 87 1017.2
20260903010054 81 0 0.0 0.0 0.00 0.00 0.00 87 1017.1
20260903005532 82 0 0.0 0.0 0.00 0.00 0.00 87 1017.2
20260903005032 82 0 0.0 0.0 0.00 0.00 0.00 86 1017.0
20260903004552 82 0 0.0 0.0 0.00 0.00 0.00 86 1016.6
20260903004033 81 0 0.0 0.0 0.00 0.00 0.00 86 1016.5
20260903003533 81 0 0.0 0.0 0.00 0.00 0.00 86 1016.6
20260903003047 82 0 0.0 0.0 0.00 0.00 0.00 86 1016.6
20260903002534 81 0 0.0 0.0 0.00 0.00 0.00 87 1016.7
20260903002033 82 0 0.0 0.0 0.00 0.00 0.00 87 1016.8
20260903001543 81 0 0.0 0.0 0.00 0.00 0.00 85 1016.9
20260903001033 81 0 0.0 0.0 0.00 0.00 0.00 88 1017.0
20260903000533 82 0 0.0 0.0 0.00 0.00 0.00 87 1017.1
20260903000057 82 0 0.0 0.0 0.00 0.00 0.00 87 1017.2
20260902235533 82 0 0.0 0.0 0.00 0.00 0.00 86 1017.3
20260902235033 82 0 0.0 0.0 0.00 0.00 0.00 86 1017.4
20260902234550 82 0 0.0 0.0 0.00 0.00 0.00 88 1017.4
20260902234033 82 0 0.0 0.0 0.00 0.00 0.00 87 1017.4
20260902233536 82 0 0.0 0.0 0.00 0.00 0.00 87 1017.6
20260902233049 83 0 0.0 0.0 0.00 0.00 0.00 88 1017.4
20260902232536 83 0 0.0 0.0 0.00 0.00 0.00 88 1017.3
20260902232034 83 0 0.0 0.0 0.00 0.00 0.00 87 1017.4
20260902231556 84 0 0.0 0.0 0.00 0.00 0.00 85 1017.3
20260902231037 84 0 0.0 0.0 0.00 0.00 0.00 86 1017.3
20260902230537 85 0 0.0 0.0 0.00 0.00 0.00 84 1017.1
20260902225533 85 0 0.0 0.0 0.00 0.00 0.00 82 1016.7
20260902225033 85 0 0.0 0.0 0.00 0.00 0.00 85 1016.3
20260902224552 85 0 0.0 0.0 0.00 0.00 0.00 83 1016.5
20260902224033 85 0 0.0 0.0 0.00 0.00 0.00 83 1016.5
20260902223534 86 0 0.0 0.0 0.00 0.00 0.00 82 1016.4
20260902223044 86 0 0.0 0.0 0.00 0.00 0.00 81 1016.4
20260902222534 86 0 0.0 0.0 0.00 0.00 0.00 79 1016.4
20260902222034 86 0 0.0 0.0 0.00 0.00 0.00 80 1016.3
20260902221558 87 0 0.0 0.0 0.00 0.00 0.00 80 1016.3
20260902221031 87 0 0.0 0.0 0.00 0.00 0.00 79 1016.5
20260902220533 87 0 0.0 0.0 0.00 0.00 0.00 79 1016.5
20260902220050 87 0 0.0 0.0 0.00 0.00 0.00 79 1016.5
20260902215533 87 0 0.0 0.0 0.00 0.00 0.00 81 1016.5
20260902215032 87 0 0.0 0.0 0.00 0.00 0.00 82 1016.5
20260902214555 87 0 0.0 0.0 0.00 0.00 0.00 80 1016.3